Weather History for Kansas City, MO

Change the Weather History Date:

Saturday, March 9, 2013

  Actual Average Record
Temperature  
Mean Temperature 53 °F -  
Max Temperature 60 °F 48 °F 66 °F (2007)
Min Temperature 46 °F 29 °F 12 °F (2003)
Degree Days  
Heating Degree Days 12    
Growing Degree Days 3 (Base 50)    
Moisture  
Dew Point 47 °F    
Average Humidity 86    
Maximum Humidity 94    
Minimum Humidity 55    
Precipitation  
Precipitation 0.19 in - - ()
Sea Level Pressure  
Sea Level Pressure 29.70 in    
Wind  
Wind Speed 6 mph (East)    
Max Wind Speed 12 mph    
Max Gust Speed 18 mph    
Visibility 4 miles    
Events Rain , Thunderstorm    
Averages and records for this station are not official NWS values.
T = Trace of Precipitation, MM = Missing Value Source: NWS Daily Summary

Daily Weather History Graph

Daily Weather History Graph

Search for Another Location

Airport:

Trip Planner

Search our weather history database for the weather conditions in past years. The results will help you decide how hot, cold, wet, or windy it might be!

Date:

Astronomy

Mar. 09, 2013 Rise Set
Actual Time 6:38 AM CST 6:19 PM CST
Civil Twilight 6:11 AM CST 6:46 PM CST
Nautical Twilight 5:41 AM CST 7:17 PM CST
Astronomical Twilight 5:09 AM CST 7:48 PM CST
Moon 5:02 AM CST (3/9) 4:23 PM CST (3/9)
Length of Visible Light 12h 34m
Length of Day
11h 41m
Waning Crescent, 5% of the Moon is Illuminated
Mar 9
Waning Crescent
Mar 11
New
Mar 19
First Quarter
Mar 27
Full
Apr 2
Last Quarter

Hourly Weather History & Observations

Time (CST) Temp. Dew Point Humidity Pressure Visibility Wind Dir Wind Speed Gust Speed Precip Events Conditions
12:54 AM 50.0 °F 37.0 °F 61% 29.98 in 10.0 mi SSE 10.4 mph 17.3 mph N/A   Overcast
1:54 AM 48.9 °F 37.9 °F 66% 29.97 in 9.0 mi South 6.9 mph 18.4 mph 0.00 in Rain Light Rain
2:54 AM 48.9 °F 39.0 °F 69% 29.94 in 8.0 mi South 9.2 mph - 0.00 in   Overcast
3:54 AM 48.0 °F 39.0 °F 71% 29.91 in 8.0 mi SSE 4.6 mph - N/A   Overcast
4:54 AM 46.9 °F 39.0 °F 74% 29.88 in 8.0 mi SE 5.8 mph - N/A   Mostly Cloudy
5:54 AM 48.0 °F 39.0 °F 71% 29.88 in 8.0 mi SE 5.8 mph - N/A   Mostly Cloudy
6:54 AM 48.0 °F 39.0 °F 71% 29.86 in 8.0 mi Variable 4.6 mph - 0.00 in Rain Light Rain
7:54 AM 48.0 °F 39.0 °F 71% 29.84 in 8.0 mi SSE 5.8 mph - 0.00 in   Mostly Cloudy
8:54 AM 51.1 °F 39.0 °F 63% 29.82 in 9.0 mi Variable 4.6 mph - N/A   Mostly Cloudy
9:54 AM 53.1 °F 39.9 °F 61% 29.82 in 10.0 mi South 5.8 mph - N/A   Overcast
10:54 AM 55.9 °F 39.9 °F 55% 29.78 in 10.0 mi South 5.8 mph - N/A   Overcast
11:54 AM 57.9 °F 42.1 °F 56% 29.76 in 10.0 mi South 6.9 mph - N/A   Overcast
12:54 PM 60.1 °F 45.0 °F 57% 29.73 in 10.0 mi South 8.1 mph - 0.00 in Rain Light Rain
1:54 PM 57.0 °F 48.0 °F 72% 29.72 in 5.0 mi West 4.6 mph - 0.00 in Rain Light Rain
2:05 PM 55.4 °F 48.2 °F 77% 29.71 in 1.8 mi WNW 3.5 mph - 0.02 in Rain Heavy Rain
2:19 PM 55.4 °F 48.2 °F 77% 29.70 in 3.0 mi Calm Calm - 0.03 in Rain Light Rain
2:44 PM 51.8 °F 48.2 °F 88% 29.71 in 3.0 mi NNW 4.6 mph - 0.03 in Rain , Thunderstorm Light Rain
2:51 PM 53.6 °F 48.2 °F 82% 29.70 in 1.8 mi NE 4.6 mph - 0.03 in Rain , Thunderstorm Light Rain
2:54 PM 52.0 °F 48.9 °F 89% 29.70 in 2.0 mi ENE 4.6 mph - 0.03 in Rain , Thunderstorm Light Rain
3:23 PM 53.6 °F 50.0 °F 88% 29.69 in 3.0 mi East 5.8 mph - 0.01 in Rain , Thunderstorm Light Rain
3:32 PM 53.6 °F 50.0 °F 88% 29.68 in 4.0 mi East 5.8 mph - 0.01 in   Overcast
3:54 PM 53.1 °F 51.1 °F 93% 29.68 in 4.0 mi Calm Calm - 0.01 in Rain Light Rain
4:54 PM 53.1 °F 51.1 °F 93% 29.66 in 3.0 mi NE 3.5 mph - 0.00 in   Overcast
5:02 PM 53.6 °F 51.8 °F 94% 29.66 in 2.5 mi NE 4.6 mph - N/A   Overcast
5:09 PM 53.6 °F 50.0 °F 88% 29.67 in 3.0 mi NNE 3.5 mph - 0.00 in Rain , Thunderstorm Light Rain
5:22 PM 53.6 °F 50.0 °F 88% 29.68 in 3.0 mi NW 5.8 mph - 0.01 in Rain , Thunderstorm Thunderstorms and Rain
5:33 PM 53.6 °F 51.8 °F 94% 29.69 in 3.0 mi NW 4.6 mph - 0.02 in Rain Light Rain
5:40 PM 53.6 °F 51.8 °F 94% 29.69 in 1.8 mi NNE 3.5 mph - 0.06 in Rain , Thunderstorm Heavy Rain
5:54 PM 53.6 °F 51.8 °F 94% 29.68 in 1.2 mi ENE 4.6 mph - N/A Rain , Thunderstorm Rain
6:05 PM 53.6 °F 51.8 °F 94% 29.68 in 2.5 mi ENE 5.8 mph - 0.00 in Rain , Thunderstorm Light Rain
6:07 PM 53.6 °F 51.8 °F 94% 29.68 in 2.5 mi ENE 6.9 mph - 0.00 in Rain Light Rain
6:14 PM 53.6 °F 50.0 °F 88% 29.67 in 3.0 mi East 5.8 mph - 0.00 in   Overcast
6:21 PM 51.8 °F 50.0 °F 94% 29.67 in 3.0 mi East 8.1 mph - 0.00 in   Overcast
6:29 PM 51.8 °F 50.0 °F 94% 29.67 in 2.5 mi East 8.1 mph - 0.00 in Rain Light Rain
6:47 PM 51.8 °F 50.0 °F 94% 29.67 in 3.0 mi East 6.9 mph - 0.00 in Rain Light Rain
6:50 PM 51.8 °F 48.2 °F 88% 29.67 in 2.5 mi East 6.9 mph - 0.00 in Rain Light Rain
6:54 PM 51.1 °F 48.9 °F 92% 29.67 in 2.0 mi East 8.1 mph - 0.01 in Rain Rain
7:02 PM 51.8 °F 48.2 °F 88% 29.65 in 1.8 mi East 11.5 mph - 0.01 in Rain Rain
7:05 PM 51.8 °F 48.2 °F 88% 29.64 in 2.0 mi East 11.5 mph - 0.01 in Rain Light Rain
7:22 PM 50.0 °F 48.2 °F 94% 29.66 in 3.0 mi East 9.2 mph - 0.01 in Rain Light Rain
7:36 PM 50.0 °F 48.2 °F 94% 29.68 in 3.0 mi East 5.8 mph - 0.02 in Rain , Thunderstorm Light Rain
7:41 PM 50.0 °F 48.2 °F 94% 29.68 in 1.8 mi East 5.8 mph - 0.06 in Rain , Thunderstorm Heavy Rain
7:54 PM 50.0 °F 48.0 °F 93% 29.68 in 1.8 mi East 5.8 mph - 0.10 in Rain , Thunderstorm Rain
8:03 PM 50.0 °F 48.2 °F 94% 29.65 in 1.8 mi East 10.4 mph - 0.02 in Rain , Thunderstorm Heavy Rain
8:06 PM 50.0 °F 48.2 °F 94% 29.65 in 2.0 mi East 10.4 mph - 0.02 in Rain Rain
8:23 PM 50.0 °F 48.2 °F 94% 29.66 in 3.0 mi East 10.4 mph - 0.02 in Rain Light Rain
8:35 PM 50.0 °F 48.2 °F 94% 29.65 in 2.5 mi ENE 6.9 mph - 0.02 in Rain Light Rain
8:43 PM 50.0 °F 48.2 °F 94% 29.65 in 2.5 mi East 6.9 mph - 0.02 in Rain Light Rain
8:54 PM 50.0 °F 48.0 °F 93% 29.65 in 2.0 mi East 6.9 mph - 0.03 in Rain Light Rain
9:17 PM 50.0 °F 48.2 °F 94% 29.66 in 3.0 mi East 4.6 mph - 0.00 in Rain Light Rain
9:26 PM 50.0 °F 48.2 °F 94% 29.66 in 2.5 mi East 3.5 mph - 0.01 in Rain Light Rain
9:40 PM 50.0 °F 48.2 °F 94% 29.64 in 3.0 mi East 5.8 mph - 0.01 in Rain Light Rain
9:42 PM 50.0 °F 48.2 °F 94% 29.64 in 2.5 mi East 6.9 mph - 0.01 in Rain Light Rain
9:54 PM 51.1 °F 48.9 °F 92% 29.62 in 2.5 mi East 6.9 mph - 0.01 in Rain Light Rain
10:02 PM 53.6 °F 51.8 °F 94% 29.62 in 4.0 mi ESE 10.4 mph - 0.00 in   Overcast
10:41 PM 53.6 °F 51.8 °F 94% 29.61 in 6.0 mi SE 9.2 mph - 0.00 in   Mostly Cloudy
10:54 PM 55.9 °F 53.1 °F 90% 29.61 in 6.0 mi South 3.5 mph - 0.00 in   Mostly Cloudy
11:30 PM 53.6 °F 51.8 °F 94% 29.63 in 4.0 mi Calm Calm - N/A   Mostly Cloudy
11:39 PM 51.8 °F 50.0 °F 94% 29.61 in 2.5 mi North 4.6 mph - N/A   Mostly Cloudy
11:50 PM 51.8 °F 50.0 °F 94% 29.60 in 1.0 mi Calm Calm - N/A   Mist
11:54 PM 51.1 °F 48.9 °F 92% 29.60 in 0.8 mi ENE 3.5 mph - N/A   Mist